Weather reports worldwide

Advertisment
Ponza, Italy (16280): temperature & dewpoint: 30.03.2020 20:00:00 - 05.04.2020 20:00:00 (CEST)Ponza, Italy (16280): wind speed & gusts: 30.03.2020 20:00:00 - 05.04.2020 20:00:00 (CEST)Ponza, Italy (16280): wind direction: 30.03.2020 20:00:00 - 05.04.2020 20:00:00 (CEST)Ponza, Italy (16280): reduced air pressure: 30.03.2020 20:00:00 - 05.04.2020 20:00:00 (CEST)Ponza, Italy (16280): visibility: 30.03.2020 20:00:00 - 05.04.2020 20:00:00 (CEST)Ponza, Italy (16280): sunshine duration: 30.03.2020 20:00:00 - 05.04.2020 20:00:00 (CEST)
Date & Time tt [°C] td [°C] ff [km/h] ff [kn] fx [km/h] fx [kn] dd ppp [hPa] vv [km] sd [min]
05.04.2020 20:00:00 15,4 6,4 13 7 - - NW 1019,0 20 -
05.04.2020 19:00:00 15,4 11,6 11 6 - - W 1018,0 20 0
05.04.2020 18:00:00 16,8 11,7 11 6 - - W 1017,5 20 36
05.04.2020 17:00:00 17,4 12,9 13 7 - - WSW 1017,2 20 60
05.04.2020 16:00:00 17,0 11,5 13 7 22 12 W 1017,7 30 60
05.04.2020 15:00:00 17,0 12,5 11 6 - - W 1017,8 30 60
05.04.2020 14:00:00 16,4 13,3 9 5 - - W 1018,3 30 60
05.04.2020 13:00:00 16,4 10,5 13 7 - - W 1018,0 30 60
05.04.2020 12:00:00 17,6 8,7 8 4 18 10 NNW 1017,6 30 60
05.04.2020 11:00:00 17,0 8,7 13 7 - - NNW 1018,2 30 60
05.04.2020 10:00:00 15,6 6,1 22 12 30 16 NNW 1018,2 30 60
05.04.2020 09:00:00 14,6 9,4 16 9 - - NNW 1018,3 30 60
05.04.2020 08:00:00 13,2 7,7 13 7 - - NNW 1018,0 30 12
05.04.2020 07:00:00 12,6 7,7 16 9 - - NNW 1017,5 20 -
05.04.2020 06:00:00 12,2 9,6 9 5 - - NNW 1017,2 20 -
05.04.2020 05:00:00 12,8 11,0 4 2 - - N 1017,1 20 -
05.04.2020 04:00:00 13,6 4,2 22 12 - - NE 1017,1 20 -
05.04.2020 03:00:00 12,8 7,7 15 8 24 13 ENE 1017,2 20 -
05.04.2020 02:00:00 12,8 11,0 16 9 - - NE 1017,3 20 -
05.04.2020 01:00:00 13,4 8,2 13 7 27 15 E 1017,3 20 -
05.04.2020 00:00:00 13,8 8,6 26 14 - - ESE 1017,2 20 -
04.04.2020 23:00:00 13,2 12,9 18 10 - - ESE 1017,2 20 -
04.04.2020 22:00:00 13,8 10,8 13 7 - - W 1017,2 20 -
04.04.2020 21:00:00 14,2 10,6 18 10 32 18 WNW 1017,0 20 -
04.04.2020 20:00:00 14,2 9,0 26 14 - - WNW 1015,9 20 18
04.04.2020 19:00:00 14,2 11,9 18 10 27 14 WNW 1016,1 20 60
04.04.2020 18:00:00 15,4 11,2 15 8 24 13 W 1015,8 20 60
04.04.2020 17:00:00 15,6 12,9 16 9 - - W 1015,1 20 60
04.04.2020 16:00:00 15,6 12,5 16 9 29 15 W 1016,0 20 60
04.04.2020 15:00:00 14,8 12,5 22 12 32 18 W 1016,1 20 60
04.04.2020 14:00:00 15,2 12,3 18 10 - - W 1016,2 20 60
04.04.2020 13:00:00 15,4 11,6 13 7 22 12 NW 1016,4 20 60
04.04.2020 12:00:00 - - - - - - - - - -
04.04.2020 11:00:00 15,8 10,4 8 4 - - N 1016,0 20 60
04.04.2020 10:00:00 14,6 9,4 5 3 - - NE 1015,1 20 60
04.04.2020 09:00:00 13,0 8,3 8 4 - - E 1014,6 20 60
04.04.2020 08:00:00 11,8 7,7 15 8 - - E 1014,1 20 24
04.04.2020 07:00:00 10,6 7,8 15 8 24 13 ESE 1014,0 20 -
04.04.2020 06:00:00 10,4 7,5 16 9 26 14 E 1013,7 20 -
04.04.2020 05:00:00 11,2 9,5 16 9 - - ENE 1013,7 20 -
04.04.2020 04:00:00 11,2 9,0 21 11 40 21 E 1013,6 20 -
04.04.2020 03:00:00 11,0 8,4 24 13 38 20 ESE 1013,5 20 -
04.04.2020 02:00:00 11,2 8,4 15 8 - - ESE 1013,8 20 -
04.04.2020 01:00:00 11,2 8,4 13 7 19 11 E 1013,8 20 -
04.04.2020 00:00:00 11,8 8,7 16 9 - - NE 1013,2 20 -
03.04.2020 23:00:00 12,0 10,2 22 12 - - N 1013,2 20 -
03.04.2020 22:00:00 12,4 9,8 22 12 - - N 1012,3 20 -
03.04.2020 21:00:00 12,4 8,5 16 9 26 14 NNW 1012,1 20 -
03.04.2020 20:00:00 12,2 7,9 4 2 - - N 1011,7 20 24
03.04.2020 19:00:00 12,6 8,5 21 11 - - WNW 1011,0 20 60
03.04.2020 18:00:00 14,0 8,6 16 9 - - WNW 1011,0 20 60
03.04.2020 17:00:00 15,4 9,7 13 7 - - W 1011,0 20 60
03.04.2020 16:00:00 16,6 10,2 8 4 - - WNW 1011,2 20 60
03.04.2020 15:00:00 15,8 9,9 9 5 - - N 1011,3 20 60
03.04.2020 14:00:00 15,8 9,2 13 7 - - N 1011,6 20 60
03.04.2020 13:00:00 15,4 9,1 4 2 - - N 1011,6 20 60
03.04.2020 12:00:00 14,4 10,4 15 8 - - N 1011,8 20 60
03.04.2020 11:00:00 13,8 9,7 13 7 - - N 1012,5 20 60
03.04.2020 10:00:00 13,2 8,1 4 2 - - N 1012,5 20 60
03.04.2020 09:00:00 11,8 7,5 8 4 - - NE 1012,2 20 42
03.04.2020 08:00:00 9,6 6,9 8 4 - - NE 1012,1 20 0
03.04.2020 07:00:00 9,4 6,5 8 4 - - ENE 1011,4 20 -
03.04.2020 06:00:00 9,4 7,2 11 6 - - ENE 1011,4 20 -
03.04.2020 05:00:00 9,8 6,0 13 7 - - NNE 1011,8 20 -
03.04.2020 04:00:00 9,6 7,0 16 9 - - N 1012,1 20 -
03.04.2020 03:00:00 9,6 6,7 18 10 - - N 1012,3 20 -
03.04.2020 02:00:00 9,8 7,2 22 12 - - N 1013,2 20 -
03.04.2020 01:00:00 10,0 6,9 4 2 - - N 1013,2 20 -
03.04.2020 00:00:00 10,2 -30,0 21 11 - - NNW 1013,7 20 -
02.04.2020 23:00:00 10,2 5,8 9 5 - - WNW 1013,7 20 -
02.04.2020 22:00:00 10,0 4,2 13 7 22 12 WNW 1013,7 20 -
02.04.2020 21:00:00 10,0 5,0 13 7 - - WNW 1013,2 20 -
02.04.2020 20:00:00 10,2 4,8 11 6 - - WNW 1012,8 20 6
02.04.2020 19:00:00 10,6 5,0 9 5 - - WNW 1012,7 20 48
02.04.2020 18:00:00 12,2 5,8 4 2 - - N 1012,9 20 30
02.04.2020 17:00:00 13,4 6,3 8 4 - - WNW 1013,3 20 30
02.04.2020 16:00:00 13,4 6,7 4 2 - - N 1014,2 20 42
02.04.2020 15:00:00 13,2 5,4 9 5 - - W 1014,2 20 60
02.04.2020 14:00:00 11,6 4,8 4 2 - - N 1014,9 20 24
02.04.2020 13:00:00 11,4 5,1 4 2 16 9 N 1015,2 20 0
02.04.2020 12:00:00 11,0 5,1 4 2 15 8 N 1015,3 20 0
02.04.2020 11:00:00 10,6 3,9 4 2 - - N 1015,3 10 0
02.04.2020 10:00:00 10,0 4,2 4 2 - - N 1015,3 10 0
02.04.2020 09:00:00 9,4 5,0 16 9 28 15 E 1015,4 10 0
02.04.2020 08:00:00 8,8 3,8 16 9 - - ESE 1015,4 10 0
02.04.2020 07:00:00 8,8 3,6 16 9 26 14 ESE 1015,5 15 -
02.04.2020 06:00:00 8,8 4,0 21 11 30 16 ESE 1015,7 20 -
02.04.2020 05:00:00 8,8 3,4 5 3 - - SSE 1016,4 20 -
02.04.2020 04:00:00 8,8 2,8 8 4 - - SSE 1016,7 15 -
02.04.2020 03:00:00 8,8 3,6 11 6 - - S 1017,2 15 -
02.04.2020 02:00:00 8,8 5,0 11 6 - - SSW 1017,0 15 -
02.04.2020 01:00:00 8,8 4,6 15 8 21 12 SSW 1017,3 15 -
02.04.2020 00:00:00 8,8 4,8 13 7 - - S 1017,3 15 -
01.04.2020 23:00:00 9,0 5,2 9 5 - - SSW 1017,3 15 -
01.04.2020 22:00:00 9,0 4,8 8 4 - - SW 1017,4 15 -
01.04.2020 21:00:00 9,6 5,6 11 6 - - WSW 1016,5 20 -
01.04.2020 20:00:00 9,8 5,2 11 6 - - WSW 1016,4 20 -
01.04.2020 19:00:00 10,2 4,6 9 5 18 10 WSW 1016,3 30 60
01.04.2020 18:00:00 11,6 3,6 8 4 - - W 1016,2 30 60
01.04.2020 17:00:00 12,0 4,7 4 2 - - N 1016,2 30 60
01.04.2020 16:00:00 12,0 3,5 8 4 - - WNW 1016,2 30 60
01.04.2020 15:00:00 12,0 3,0 4 2 - - N 1016,2 30 60
01.04.2020 14:00:00 11,8 3,3 4 2 - - N 1016,2 25 60
01.04.2020 13:00:00 13,0 4,9 11 6 - - N 1016,1 20 60
01.04.2020 12:00:00 11,6 5,0 4 2 19 10 N 1016,2 20 48
01.04.2020 11:00:00 9,0 3,8 4 2 - - N 1016,4 15 24
01.04.2020 10:00:00 8,4 3,5 16 9 25 14 NNE 1015,7 15 12
01.04.2020 09:00:00 7,2 3,2 16 9 34 18 ENE 1015,5 15 0
01.04.2020 08:00:00 7,4 4,5 21 11 - - ENE 1015,1 10 0
01.04.2020 07:00:00 7,6 5,2 21 11 42 23 ENE 1014,5 10 0
01.04.2020 06:00:00 - - - - - - - - - -
01.04.2020 05:00:00 7,8 7,5 15 8 - - ESE 1015,0 10 -
01.04.2020 04:00:00 9,2 7,3 4 2 18 10 N 1015,4 10 -
01.04.2020 03:00:00 9,2 7,7 4 2 19 10 N 1015,4 10 -
01.04.2020 02:00:00 9,0 8,1 13 7 - - WNW 1015,4 10 -
01.04.2020 01:00:00 9,2 8,9 4 2 27 15 N 1015,5 10 -
01.04.2020 00:00:00 10,0 9,7 21 11 27 15 E 1015,7 7 -
31.03.2020 23:00:00 11,0 10,7 13 7 - - E 1015,6 8 -
31.03.2020 22:00:00 13,0 11,2 15 8 23 13 NNW 1015,1 10 -
31.03.2020 21:00:00 13,2 12,2 16 9 23 13 WNW 1015,0 10 -
31.03.2020 20:00:00 13,8 12,7 9 5 - - W 1015,0 10 -
31.03.2020 19:00:00 13,6 12,7 11 6 18 10 W 1015,0 10 0
31.03.2020 18:00:00 14,8 13,5 4 2 19 11 N 1014,9 10 0
31.03.2020 17:00:00 15,2 13,0 4 2 - - N 1014,9 10 12
31.03.2020 16:00:00 15,4 12,5 11 6 - - W 1015,0 10 36
31.03.2020 15:00:00 15,4 12,5 13 7 23 13 W 1014,9 10 60
31.03.2020 14:00:00 14,8 12,8 13 7 - - W 1015,5 10 60
31.03.2020 13:00:00 14,2 12,6 9 5 - - W 1016,2 10 60
31.03.2020 12:00:00 14,0 12,5 13 7 - - WNW 1015,8 10 60
31.03.2020 11:00:00 - - - - - - - - - -
31.03.2020 10:00:00 13,2 12,2 13 7 - - WNW 1015,2 10 60
31.03.2020 09:00:00 12,6 11,7 13 7 - - WNW 1014,5 10 60
31.03.2020 08:00:00 11,8 11,3 13 7 - - WNW 1014,4 10 36
31.03.2020 07:00:00 - - - - - - - - - -
31.03.2020 06:00:00 11,8 10,7 18 10 30 16 WNW 1014,2 10 -
31.03.2020 05:00:00 11,8 10,9 21 11 - - WNW 1014,2 10 -
31.03.2020 04:00:00 11,8 10,9 22 12 - - WNW 1014,0 10 -
31.03.2020 03:00:00 - - - - - - - - - -
31.03.2020 02:00:00 12,0 11,2 18 10 - - WNW 1014,3 10 -
31.03.2020 01:00:00 12,0 11,2 16 9 26 14 WNW 1014,3 10 -
31.03.2020 00:00:00 12,0 11,5 18 10 27 15 WNW 1014,1 10 -
30.03.2020 23:00:00 12,0 11,5 13 7 - - W 1014,1 10 -
30.03.2020 22:00:00 12,2 11,7 21 11 - - WNW 1013,1 9 -
30.03.2020 21:00:00 12,4 11,9 18 10 - - WNW 1013,1 9 -
30.03.2020 20:00:00 12,6 12,0 21 11 - - WNW 1013,0 9 -

tt = temperature
td = dewpoint
ff = wind speed
fx = gusts
dd = wind direction
ppp = reduced air pressure
vv = visibility
sd = sunshine duration

Next stations